STARLINK-5104 (55646 NORAD) Tracking and Keplerian Element Data

This shows tracking and keplerian element data for the satellite.

Feedback or suggestion? Click here.




ElementValue
Catalog55646
NameSTARLINK-5104
Epoch Orbit130
Epoch Day62.91667824
Epoch Year2023
RAAN110.2014
Inclination70
Eccentricity0.0003549
Argument of Perigee260.5474
Mean Anonmoly333.8585
Mean Motion15.74928224
Decay Rate-0.00972824
L11 55646U 23021U 23062.91667824 -.00972824 00000+0 -73308-2 0 9996
L22 55646 70.0000 110.2014 0003549 260.5474 333.8585 15.74928224 1306



Live tracking and technical data element details for STARLINK-5104 (NORAD 55646). STARLINK-5104 can be tracked NOW for your location showing map with azimuth and elevation plus other details from your city location.







IsCatalogInMostPopularTable: catalog: 55646, numindb: 1
Update: records affected: 1



GetName: 55646 STARLINK-5104

Hit Count: updated at: Mon, 20 Mar 2023 13:10:07 GMT